User: anonymous   Login
Location: Berbisdorf
(50.7638°N, 12.9442°E)
Time: 13:52:32
(UTC+00:00)
Language:

STARLINK-1317 - Orbit

View from above orbital plane
View from above orbital plane
View from above satellite
View from above satellite

Ground track
Ground track

The orbit data is extracted from the following two-line orbital elements,

1 45365U 20019F   20218.91667824 -.00035035 +00000-0 -23955-2 0  9995
2 45365 052.9988 312.4976 0001343 104.7802 077.2310 15.05607008001756
Epoch (UTC): 05 August 2020 22:00:01
Eccentricity: 0.0001343
inclination: 52.9988°
perigee height: 549 km
apogee height: 550 km
right ascension of ascending node: 312.4976°
argument of perigee: 104.7802°
revolutions per day: 15.05607008
mean anomaly at epoch: 77.2310°
orbit number at epoch: 175

The dashed part of the orbit path shows where the satellite is in the earth's shadow,  

DLR